Regional Weather Roundup
Issued by NWS Newport/Morehead, NC

Current Version | Previous Version | Graphics & Text | Print | Product List | Glossary Off
Versions: 1 2 3 4 5 6 7 8 9 10 11 12 13 14 15 16 17 18 19 20 21 22 23 24 25 26 27 28 29 30 31 32 33 34 35 36 37 38 39 40 41 42 43 44 45 46 47 48 49 50

000
ASUS42 KMHX 301425
RWRMHX
WEATHER ROUNDUP FOR EASTERN NORTH CAROLINA
NATIONAL WEATHER SERVICE NEWPORT/MOREHEAD CITY NC
1000 AM EDT THU MAR 30 2017

NOTE: "FAIR" INDICATES FEW OR NO CLOUDS BELOW 12,000 FEET
WITH NO SIGNIFICANT WEATHER AND/OR OBSTRUCTIONS TO VISIBILITY

NCZ015>017-031-032-045>047-102-103-301500-
NORTH COAST

CITY           SKY/WX    TMP DP  RH WIND       PRES   REMARKS
EDENTON        SUNNY     56  47  71 NE7       30.22S
ELIZABETH CITY CLOUDY    53  46  77 NE13      30.23R
KITTY HAWK     NOT AVBL
MANTEO         SUNNY     54  45  70 NE13G18   30.22S

$$

NCZ045>047-081-094-103-104-301500-
CENTRAL COAST

CITY           SKY/WX    TMP DP  RH WIND       PRES   REMARKS
FRISCO         SUNNY     58  47  66 NE12G21   30.19R

$$

NCZ095-097-098-100-101-301500-
SOUTHERN COAST

CITY           SKY/WX    TMP DP  RH WIND       PRES   REMARKS
BEAUFORT       SUNNY     62  50  64 NE10      30.16R
CEDAR ISLAND   NOT AVBL
JACKSONVILLE   PTSUNNY   61  48  62 E9        30.15S
PINEY ISLAND   SUNNY    N/A N/A N/A NE15G21   30.18R
WILMINGTON     SUNNY     64  49  57 E12G17    30.14R


$$

NCZ011>013-027>030-043-044-078>080-089-090>093-098-301500-
COASTAL PLAIN

CITY           SKY/WX    TMP DP  RH WIND       PRES   REMARKS
AHOSKIE          N/A     49  44  83 NE8       30.23R HAZE
CLINTON        MOSUNNY   58  49  72 E6        30.16S
ELIZABETHTOWN  MOSUNNY   59  51  73 E5        30.14S
GOLDSBORO      CLOUDY    56  47  73 E12       30.17R
GREENVILLE     CLOUDY    55  46  71 E6        30.21S
HAVELOCK       MOSUNNY   60  47  61 E12       30.18R
KENANSVILLE    CLOUDY    59  45  58 E6        30.18R
KINSTON        CLOUDY    55  48  76 NE10      30.19R
NEW BERN       PTSUNNY   57  47  69 NE10      30.19R
RICHLANDS      NOT AVBL
ROCKY MOUNT    CLOUDY    53  47  79 NE6       30.20R
WASHINGTON     PTSUNNY   53  45  75 E12G17    30.20S
WHITEVILLE     SUNNY     64  51  62 NE10      30.12S

$$

AMZ130-135-150-152-154-156-158-170-250-252-270-ANZ085-086-088-633-658-670-301500-
MARINE OBSERVATIONS

STATION/POSITION TIME  TEMP    WIND        PRES    WAVE   SWELL
                       AIR SEA DIR/SP/G            HT/PER HT/PER
                 (UTC) (F)     (DEG/KT/KT) (MB)    (FT/S) (FT/S)
CHESAPEAKE LIGHT NOT AVBL
64 E VA BEACH    1350   51 51   50/ 14/ 16 1023.2    5/ 9   3/ 9
DUCK             1400   49 50   30/ 13/ 16 1023.0
2 E DUCK         1400      50                N/A     4/10   2/11
OREGON INLET     1400   51 54   20/ 11/ 15 1022.9
13E OREGON INLT  1348      49                N/A     5/10   5/10
HATTERAS CG      1400   55 60   30/ 12/ 18 1021.9
DIAMOND BUOY     1350   62 77   40/ 14/ 17 1021.4    7/ 9   5/ 9
CAPE LOOKOUT     1400   60      40/ 16/ 17 1021.1
BEAUFORT LAB     1400   60 61   40/  8/ 14 1020.6
30 SE NEW RVR IN 1408   62      60/ 14/ 19 1020.6
30 SE NEW RVR IN 1413      65                N/A     5/10   2/11
27 SE WRIGHTSVLE 1408   67 74   90/ 16/ 21 1019.5
5 SE WRIGHTSVLE  1408   58 58   60/ 14/ 23 1020.2
225 S CAPE HAT   1350   68 72   80/ 10/ 12 1019.4    6/10   5/10
41 SE CHARLESTON 1350   72 70   90/ 16/ 17 1017.1    5/ 9   3/ 9

$$




USA.gov is the U.S. government's official web portal to all federal, state and local government web resources and services.